Burnsville, North Carolina, United States (28714)
Lat: 35.92N, Lon: 82.3W
Wx Zone: NCZ049
Local Info
Past Weather Observations for Today

NOTE: This archive is for the closest National Weather Service station to Burnsville. Information may differ from the station used for current weather conditions.

Click here for Long-term Archive

Time Weather Temperature Dewpoint Humidity Pressure Winds Precip Visibility
19:54
Clear
68°F / 20°C 50°F / 10°C 53% 30.33 in
(1027 mb)
SSE 4.6 mph
(SSE 7 kph)
- 10SM
18:54
Clear
72°F / 22°C 48°F / 9°C 44% 30.33 in
(1027 mb)
SSE 9.2 mph
(SSE 15 kph)
- 10SM
17:54
Clear
73°F / 23°C 46°F / 8°C 38% 30.33 in
(1027 mb)
SSE 10.4 mph
(SSE 17 kph)
- 10SM
16:54
Partly Cloudy
75°F / 24°C 48°F / 9°C 39% 30.33 in
(1027 mb)
SSE 11.5 mph
(SSE 19 kph)
- 10SM
15:54
Clear
75°F / 24°C 48°F / 9°C 39% 30.33 in
(1027 mb)
SE 8.1 mph
(SE 13 kph)
- 10SM
14:54
Clear
75°F / 24°C 46°F / 8°C 36% 30.36 in
(1028 mb)
SE 8.1 mph
(SE 13 kph)
- 10SM
13:54
Clear
75°F / 24°C 46°F / 8°C 36% 30.36 in
(1028 mb)
S 13.8 mph
(S 22 kph)
- 10SM
12:54
Partly Cloudy
75°F / 24°C 48°F / 9°C 39% 30.39 in
(1029 mb)
SSE 8.1 mph
(SSE 13 kph)
- 10SM
11:54
Clear
73°F / 23°C 46°F / 8°C 38% 30.42 in
(1030 mb)
S 10.4 mph
(S 17 kph)
- 10SM
10:54
Partly Cloudy
73°F / 23°C 46°F / 8°C 38% 30.42 in
(1030 mb)
S 10.4 mph
(S 17 kph)
- 10SM
09:54
Partly Cloudy
70°F / 21°C 52°F / 11°C 53% 30.42 in
(1030 mb)
Variable 5.8 mph
(Variable 9 kph)
- 10SM
08:54
Clear
66°F / 19°C 54°F / 12°C 64% 30.45 in
(1031 mb)
S 5.8 mph
(S 9 kph)
- 10SM
07:54
Clear
61°F / 16°C 52°F / 11°C 72% 30.45 in
(1031 mb)
S 3.5 mph
(S 6 kph)
- 10SM
06:54
Clear
54°F / 12°C 48°F / 9°C 82% 30.45 in
(1031 mb)
Calm - 10SM
06:37
Partly Cloudy
52°F / 11°C 46°F / 8°C 82% 30.45 in
(1031 mb)
Calm - 10SM
06:01
Mostly Cloudy
52°F / 11°C 46°F / 8°C 82% 30.45 in
(1031 mb)
Calm - 10SM
05:54
Partly Cloudy
52°F / 11°C 46°F / 8°C 82% 30.45 in
(1031 mb)
Calm - 10SM
04:54
Clear
52°F / 11°C 45°F / 7°C 77% 30.42 in
(1030 mb)
SE 3.5 mph
(SE 6 kph)
- 10SM
03:54
Clear
50°F / 10°C 45°F / 7°C 82% 30.39 in
(1029 mb)
Calm - 10SM
02:54
Clear
50°F / 10°C 46°F / 8°C 88% 30.39 in
(1029 mb)
SE 4.6 mph
(SE 7 kph)
- 10SM
01:54
Clear
52°F / 11°C 46°F / 8°C 82% 30.39 in
(1029 mb)
Calm - 10SM
00:54
Clear
52°F / 11°C 46°F / 8°C 82% 30.39 in
(1029 mb)
SSE 3.5 mph
(SSE 6 kph)
- 10SM
Time Weather Temperature Dewpoint Humidity Pressure Winds Precip Visibility


Weather for websites

WeatherForYou.com, LLC is not responsible for any damages or problems caused by this service. Current weather conditions are obtained from the closest station including government and personal stations which may have varying degrees of accuracy. Weather forecasts are derived from the NOAA NDFD. Like all things, this site belongs to Jesus Christ... He just trusts us to maintain it. If you have any questions or comments email webmaster@weatherforyou.com

Copyright © 2015, WeatherForYou.com LLC. All rights reserved.